Lapse_Rate
1.9 2.0 2.0 2.0 2.3 2.4 2.7 2.5 2.5 2.4 2.8 2.8 2.8 2.9 2.9 2.8 2.4 2.7 2.6 2.5 2.2 2.4 2.8 2.7 2.8 3.1 3.6 4.2 4.6 5.1 5.7 8.1 8.9 6.3 8.4 8.2 4.7 4.4 4.3 4.5 4.6 4.6 4.5
2.8 2.6 2.6 2.7 2.8 3.1 3.4 3.2 2.7 3.1 2.7 2.8 2.5 2.6 2.5 2.4 2.2 2.4 2.4 2.3 2.1 2.4 2.4 2.4 2.8 3.2 3.1 4.0 4.6 4.8 5.7 7.1 8.8 7.8 6.9 9.2 9.5 7.4 4.4 4.0 6.1 7.0 6.1
3.0 3.2 3.1 3.2 3.5 3.8 3.5 2.9 2.8 2.9 2.8 2.2 2.0 2.2 2.1 1.9 2.0 2.0 2.2 2.3 2.3 2.3 2.4 2.5 2.8 3.1 3.2 4.0 4.4 5.0 5.7 6.6 8.3 9.4 6.9 9.1 9.7 10.0 9.8 8.5 6.1 5.9 8.0
3.1 3.4 3.5 3.8 3.8 3.8 3.3 2.9 2.7 2.3 2.4 1.9 1.5 1.4 1.3 1.4 1.7 2.3 2.3 2.6 2.6 2.7 2.5 2.6 2.8 3.1 3.4 3.9 3.9 4.6 6.0 7.9 9.1 9.4 9.6 9.5 9.6 9.8 10.0 10.0 9.7 9.5 8.5
3.5 3.7 4.0 3.8 3.7 3.3 2.5 2.2 1.6 1.3 1.6 1.4 1.4 0.8 0.8 1.0 2.1 2.0 2.4 2.5 2.2 2.2 2.4 2.4 2.6 2.6 1.9 2.6 4.0 5.2 7.4 8.8 9.0 8.9 9.3 9.5 9.1 9.4 9.2 9.7 9.7 9.7 7.4
4.0 3.7 4.5 3.5 2.2 1.4 1.5 1.3 1.1 0.8 0.6 0.5 0.5 0.2 0.2 0.9 0.2 0.6 1.3 2.0 2.0 2.0 2.2 2.6 2.8 2.7 3.7 4.0 4.4 5.9 9.3 9.1 8.5 8.7 9.0 9.1 9.0 9.4 9.7 9.7 9.5 9.6 9.3
2.2 2.0 1.5 1.6 1.3 1.3 1.1 0.7 0.7 0.7 0.9 0.5 0.3 0.1 0.1 -0.0 -0.6 0.5 0.8 1.3 1.9 2.1 2.1 2.3 2.8 3.6 4.0 5.1 5.8 8.0 9.3 9.5 9.6 9.4 8.9 9.0 9.5 9.4 9.6 9.3 9.1 9.3 9.4
2.0 1.6 1.1 1.2 1.1 0.7 0.2 0.2 0.6 0.6 0.4 0.5 0.3 -0.1 -0.3 -0.1 -0.7 -0.1 0.7 1.3 1.7 1.7 2.2 2.5 2.9 3.7 5.1 6.2 8.4 8.6 8.9 9.1 8.9 9.7 9.6 9.5 9.6 9.5 9.1 8.7 8.6 8.4 8.6
2.2 1.8 0.9 0.7 0.2 -0.1 -0.8 -0.1 0.4 0.2 0.0 -0.2 -0.6 -1.0 -1.6 -1.2 -1.2 -0.2 0.6 1.6 1.9 1.8 2.3 2.7 3.9 4.4 5.9 9.3 9.2 8.6 8.7 8.7 8.2 8.2 9.1 9.3 9.1 9.1 9.1 8.7 8.1 8.4 8.3
1.9 1.8 1.0 0.2 -0.6 -0.8 -0.3 -0.6 -0.3 -0.5 -0.5 -0.6 -0.9 -1.3 -2.3 -2.5 -1.5 -0.4 1.1 2.3 2.3 2.9 3.3 4.2 6.1 9.3 9.4 9.5 9.1 8.6 7.9 8.1 8.0 8.0 7.9 8.1 8.3 8.4 9.0 9.5 9.2 8.5 8.7
0.7 -0.1 -0.9 -1.1 -1.8 -1.3 -1.3 -1.1 -1.6 -1.5 -1.4 -2.0 -2.3 -1.9 -2.3 -2.1 -1.4 -0.1 1.6 3.1 3.9 4.5 6.4 6.9 8.5 9.2 9.5 9.2 9.3 8.5 8.3 9.2 8.3 8.6 8.8 8.7 8.0 8.1 8.5 9.2 8.8 9.0 8.6
-0.8 -1.5 -2.2 -3.2 -2.6 -3.1 -3.2 -2.6 -3.0 -2.6 -2.8 -2.3 -1.9 -1.1 -0.2 -0.8 -0.7 1.1 2.5 3.9 5.2 7.3 7.6 9.0 9.4 9.1 9.2 9.5 8.4 7.6 9.5 9.3 8.0 7.6 7.4 6.8 7.1 7.3 7.4 8.3 9.2 9.3 9.3
-2.7 -3.2 -3.8 -4.3 -3.7 -4.0 -3.7 -2.9 -2.2 -2.4 -1.8 -0.3 -0.0 0.6 1.1 0.8 1.0 1.4 3.2 4.4 5.8 7.5 9.2 9.5 8.1 7.9 6.5 5.7 5.8 5.7 5.9 6.5 7.4 7.6 7.8 7.4 8.1 7.4 6.7 6.3 6.7 6.9 7.6
-3.1 -3.8 -4.5 -4.9 -4.1 -4.3 -3.0 -2.4 -1.7 -0.9 -0.5 -0.2 0.4 0.9 1.2 1.0 1.7 2.6 4.1 5.0 7.2 9.2 8.9 7.0 6.2 5.7 5.2 5.3 4.6 4.8 5.2 5.7 6.0 6.5 8.6 8.2 7.0 6.4 6.4 6.9 7.5 7.0 8.4
-3.3 -3.6 -3.2 -3.2 -3.7 -2.1 -2.0 -0.9 -0.8 -0.4 0.0 0.3 0.4 0.8 1.4 2.1 2.6 4.3 8.0 8.9 9.0 8.7 7.0 5.3 4.6 4.4 4.5 4.9 4.7 4.9 5.4 5.8 6.3 8.1 7.8 6.7 6.4 6.7 6.8 7.4 8.8 8.5 8.3
-2.9 -2.9 -2.2 -2.0 -1.7 -1.0 -0.4 -0.3 -0.4 0.5 1.0 1.8 3.2 3.8 3.9 3.4 5.8 6.9 9.3 9.4 9.2 7.7 6.0 4.5 4.2 4.5 4.7 4.7 4.8 5.1 5.5 5.8 6.5 6.2 6.1 7.2 7.5 7.5 7.5 6.9 8.3 8.6 8.2
-1.6 -1.7 -1.4 -1.7 -0.9 -0.3 -0.3 0.2 0.8 0.9 0.6 1.4 2.5 3.1 3.7 5.0 5.2 6.0 9.4 9.5 6.8 5.5 4.2 3.7 3.9 4.2 4.3 4.5 5.0 5.3 5.1 5.5 5.3 5.9 6.3 6.6 7.4 8.2 8.2 7.9 7.8 8.4 8.3
-3.3 -3.8 -1.2 -0.6 -0.1 0.3 0.2 0.3 -0.1 0.0 0.7 1.5 1.3 1.8 2.2 3.8 5.3 6.9 9.1 8.7 4.2 3.2 2.8 3.1 3.2 3.6 3.8 4.0 4.5 4.8 4.7 4.8 5.0 5.5 5.8 6.2 7.7 8.5 8.4 8.0 7.8 8.1 8.1
-3.3 -2.0 -1.7 -1.0 -0.9 -0.7 -0.2 -0.0 -0.0 -0.0 -0.1 -0.2 0.7 1.8 1.5 2.3 3.5 5.3 5.7 3.5 2.6 1.9 2.6 2.9 3.2 3.1 3.3 3.6 3.9 4.1 4.2 4.2 4.7 5.0 5.7 6.6 7.8 8.4 8.4 7.8 7.6 6.8 7.2
-4.0 -4.1 -2.9 -1.2 -0.7 -0.7 -0.1 0.2 0.8 1.1 0.9 0.9 1.3 2.0 2.1 0.8 2.3 3.7 3.5 2.8 2.3 2.0 2.2 2.2 2.5 2.5 2.7 3.0 3.2 3.5 3.4 3.8 4.7 5.4 5.9 6.5 7.0 8.5 7.8 7.4 7.2 7.4 7.2
-2.6 -2.4 -3.0 -1.6 -1.1 -0.3 0.0 0.5 1.4 2.1 2.0 2.1 2.2 2.4 3.3 3.3 4.6 3.7 3.5 3.1 2.9 2.3 2.1 2.0 2.0 2.1 2.1 2.3 2.6 3.0 3.2 3.4 4.2 5.0 5.5 6.3 6.2 7.5 7.3 7.3 7.1 7.0 7.0
-2.7 -1.9 -1.8 -1.3 -0.2 0.3 0.9 1.5 1.9 2.4 2.5 2.3 2.6 2.6 4.1 4.7 4.7 3.7 3.5 3.1 2.6 1.8 1.2 1.1 1.3 1.6 1.7 1.8 2.2 2.5 2.5 2.9 3.5 4.6 5.1 5.2 5.7 7.3 7.1 6.9 6.8 7.0 7.0
-2.7 -1.8 -0.9 -0.4 0.2 0.4 1.0 2.0 2.6 2.8 2.9 3.1 3.2 3.2 3.3 3.3 3.3 3.0 2.9 2.4 1.6 0.8 0.6 0.5 0.8 0.7 0.9 1.0 1.4 2.0 2.0 2.1 3.0 3.5 3.5 4.6 6.1 6.8 6.4 6.6 6.7 6.6 6.9
-1.4 -0.6 0.3 1.3 1.9 2.8 3.3 4.1 4.7 4.0 3.8 4.2 4.1 3.8 3.6 3.5 3.1 2.7 2.1 1.5 0.7 0.1 -0.1 -0.2 -0.4 -0.3 -0.3 -0.3 0.4 0.9 1.1 1.2 1.8 2.1 3.0 4.9 6.6 6.1 5.8 5.7 6.0 6.2 6.7
-0.8 0.1 0.9 1.7 2.3 3.4 4.1 4.7 5.0 5.2 5.2 5.1 4.9 4.6 4.3 3.6 2.8 2.2 1.6 0.8 -0.4 -0.8 -0.6 -0.7 -0.8 -0.6 -0.7 -0.9 -1.1 -0.8 -0.5 -0.1 0.5 2.3 4.9 6.7 6.0 5.2 5.6 5.5 5.5 5.7 6.1
0.7 1.0 1.7 2.5 3.2 4.1 4.8 5.1 5.4 5.6 5.6 5.6 5.5 5.0 4.4 3.6 2.7 1.9 1.1 0.1 -0.6 -0.8 -1.0 -1.1 -1.1 -1.2 -1.4 -1.2 -0.6 -0.2 0.4 1.6 3.4 5.5 6.0 6.6 5.9 5.9 5.7 5.6 5.3 5.7 5.8
Wind_Speed
10 10 10 9 9 9 7 8 8 8 6 6 5 4 4 5 6 6 5 5 6 7 7 8 9 9 7 8 8 8 9 9 12 13 12 15 19 17 20 23 22 25 24
11 11 11 10 9 8 7 8 7 6 4 3 3 2 3 4 5 5 5 5 7 8 9 9 10 7 10 10 8 12 11 12 11 17 15 12 15 17 21 19 19 22 24
12 11 10 10 9 8 7 7 6 5 4 3 1 0 1 3 4 4 5 6 7 8 8 9 10 10 11 9 11 11 11 11 12 12 15 12 12 12 14 15 15 18 22
13 12 12 11 10 9 7 7 6 5 4 3 3 3 3 4 5 4 7 7 8 8 10 9 10 11 11 12 12 13 12 12 12 12 12 13 12 13 12 12 12 11 12
13 13 13 11 9 8 8 7 6 5 5 4 4 4 4 5 4 6 7 8 9 10 9 11 12 14 17 17 10 12 14 12 11 11 13 13 13 12 12 11 12 13 15
14 14 12 10 8 8 8 7 6 6 6 5 4 4 5 5 5 8 10 8 9 9 10 10 13 14 15 18 20 21 19 13 13 11 12 14 17 14 12 11 11 12 15
11 8 7 9 9 9 8 8 7 7 5 5 5 5 6 6 6 10 11 10 9 9 10 10 10 11 15 15 18 21 21 22 22 15 16 16 17 16 15 16 15 14 14
10 8 9 9 9 9 9 8 7 6 6 5 6 6 6 5 8 10 12 11 8 10 10 10 12 13 15 14 15 16 16 16 17 13 16 17 17 18 16 16 17 16 14
10 11 10 10 10 10 9 8 7 6 6 6 6 6 7 6 8 10 11 8 9 10 10 13 13 14 20 24 16 16 16 16 25 32 35 36 37 37 33 15 13 13 14
9 10 9 9 9 10 9 8 6 5 6 4 6 7 7 7 9 10 11 7 9 8 10 11 16 17 24 26 17 16 17 16 14 15 13 17 23 24 31 21 14 14 14
6 7 8 9 9 9 8 6 6 5 5 5 7 7 7 8 8 10 11 7 7 8 9 10 9 21 26 27 26 15 17 21 20 15 12 11 12 12 11 16 16 13 13
7 7 8 8 7 7 7 6 5 5 6 6 6 6 5 6 9 10 11 13 14 9 10 10 11 20 24 29 23 26 26 22 10 10 10 10 10 10 10 11 17 18 19
7 7 8 8 7 7 7 7 6 6 6 6 5 5 5 4 5 10 12 13 15 10 9 14 18 23 23 18 20 23 17 9 9 9 10 11 11 11 13 14 18 21 21
8 8 8 8 8 7 6 6 7 7 7 6 6 6 5 5 5 5 6 7 11 10 11 6 12 14 14 14 10 11 9 9 9 10 10 11 11 11 10 10 10 11 11
7 8 9 8 9 8 8 7 7 8 7 6 6 5 6 6 5 9 10 8 8 9 6 6 7 7 8 8 8 9 9 9 9 9 10 10 10 10 11 10 10 10 11
9 8 7 7 6 6 6 6 13 14 13 16 16 11 7 14 15 12 16 16 16 12 6 6 7 7 8 8 9 9 9 10 9 10 10 9 10 11 11 11 11 10 11
8 7 6 6 6 6 6 6 6 6 10 12 14 14 13 13 13 14 14 16 8 7 3 5 6 7 7 8 8 9 10 10 11 10 10 10 10 11 12 11 11 11 11
5 3 5 5 5 5 6 6 5 5 6 5 6 8 9 12 14 11 14 8 5 3 3 5 6 6 7 8 8 9 10 10 10 10 10 10 10 11 11 12 11 12 12
4 3 3 3 4 4 4 5 5 5 6 5 5 6 6 7 10 13 5 3 4 4 4 6 6 6 7 8 9 9 9 10 10 10 10 10 11 10 12 11 12 16 16
2 1 3 3 4 5 5 5 6 6 6 5 5 6 4 3 3 4 3 4 4 5 5 6 6 7 7 8 8 9 9 9 10 9 10 10 11 10 11 12 12 12 12
2 2 3 3 4 4 4 5 6 6 6 6 6 6 10 7 7 5 5 5 5 5 6 6 7 7 7 7 8 9 8 9 9 10 10 10 11 11 11 11 11 12 12
2 2 3 3 4 4 5 5 6 7 7 7 7 6 11 6 6 6 5 6 6 6 8 7 7 7 8 7 8 9 9 9 9 9 10 10 11 11 10 10 11 11 11
2 2 3 3 4 4 5 5 6 7 7 7 7 6 5 5 5 6 6 6 6 6 9 10 8 7 12 12 14 12 9 9 9 9 10 11 11 10 10 10 10 10 10
2 3 3 3 3 4 5 6 7 7 7 7 6 6 6 6 6 7 7 6 6 9 10 11 11 12 13 13 14 15 16 18 17 17 18 12 10 11 9 9 9 11 10
1 2 2 3 3 4 5 6 7 7 7 7 7 6 6 6 7 7 7 5 6 7 10 12 12 13 15 15 17 20 21 24 22 23 19 9 9 11 9 8 9 9 10
2 3 3 3 4 5 6 7 7 7 7 7 7 6 7 6 7 7 6 6 6 6 10 12 13 15 17 17 19 19 21 24 23 26 9 6 6 7 7 8 11 7 9
Wind_Direction
167 159 152 155 158 146 138 141 132 125 111 84 64 54 40 20 8 353 350 341 335 329 324 325 321 322 313 312 304 296 290 286 285 288 290 295 299 303 301 302 298 295 292
173 169 169 164 163 158 153 139 132 122 116 107 87 59 25 358 346 334 328 322 320 317 319 317 314 318 311 307 302 298 294 292 288 290 292 296 293 299 301 301 298 297 288
181 179 175 178 175 168 157 145 141 147 161 148 132 61 312 311 311 300 299 305 303 303 304 305 305 307 304 303 301 298 298 297 294 291 296 300 297 293 293 296 300 298 286
189 188 188 189 184 176 165 162 167 182 196 205 203 229 249 279 281 276 293 293 293 294 296 297 299 299 300 303 300 297 296 295 295 292 293 300 300 300 295 296 298 308 308
193 195 200 193 185 176 173 174 176 197 213 218 221 242 248 262 261 294 296 299 299 300 300 299 296 302 297 293 291 295 298 296 296 296 293 294 298 306 301 302 295 299 299
197 204 201 190 178 178 179 183 185 198 211 215 231 239 257 254 278 289 301 301 297 295 298 301 298 297 294 298 294 292 290 292 287 291 294 288 293 298 297 296 296 295 298
193 193 180 179 179 185 183 185 202 210 214 224 237 241 251 259 268 295 298 294 294 293 296 298 299 300 300 298 298 294 288 283 279 282 285 284 287 288 293 290 285 282 286
193 192 189 186 187 182 187 195 204 210 218 228 237 244 255 262 280 295 298 293 289 289 293 296 296 300 302 304 296 286 281 278 275 272 268 269 271 275 271 273 275 274 271
200 204 195 189 188 185 193 197 204 213 222 231 234 243 257 272 286 295 298 294 289 290 292 292 295 299 297 294 293 293 287 278 272 271 272 274 276 278 279 280 279 283 283
205 204 190 185 184 184 189 193 200 215 229 232 244 251 257 271 284 287 290 284 288 296 298 295 288 293 302 300 295 291 284 287 293 289 288 291 285 279 277 274 276 275 279
166 165 175 183 179 178 177 186 194 214 240 239 253 255 255 255 267 280 285 286 291 296 300 303 303 302 301 303 306 310 306 307 309 300 295 294 292 289 284 278 266 264 270
170 173 175 166 169 171 174 182 198 216 237 246 252 265 244 249 255 278 288 289 294 299 296 299 298 310 320 315 313 309 309 313 309 299 295 294 294 294 296 297 293 283 268
167 171 164 161 170 169 180 194 208 215 233 247 247 259 262 254 265 277 289 290 296 300 293 297 329 324 318 312 313 319 324 315 310 304 302 298 298 299 299 294 289 283 279
174 169 166 174 182 187 199 206 213 218 227 236 242 253 261 264 273 275 285 287 278 289 303 335 320 322 316 311 316 326 323 318 314 304 301 302 301 298 292 291 287 287 282
176 177 183 190 194 199 214 217 223 231 229 232 232 241 264 273 271 279 296 300 296 303 349 333 326 320 317 319 322 319 318 319 315 312 308 304 300 299 296 298 289 281 276
186 188 192 191 195 208 218 234 238 243 241 246 257 260 262 257 280 294 288 297 308 337 333 311 310 309 309 317 318 316 316 316 317 316 307 302 301 301 302 300 296 289 283
191 184 187 199 202 207 214 228 246 224 252 259 266 270 270 276 287 284 290 291 353 354 317 303 296 301 304 309 309 311 313 316 313 309 308 303 302 301 305 301 300 297 294
182 166 193 202 211 218 226 230 231 236 251 258 253 269 270 274 277 283 282 314 316 324 288 285 290 294 301 305 305 306 308 309 312 309 307 301 299 300 304 301 299 298 297
180 196 204 217 227 239 238 244 245 241 240 246 277 276 275 278 281 275 317 272 273 276 275 279 283 288 294 296 298 299 300 302 303 302 302 302 303 300 301 299 296 297 293
208 223 214 229 232 236 242 247 254 253 252 248 244 255 277 255 252 250 250 254 258 263 268 272 279 281 285 288 293 295 300 299 299 300 301 301 305 303 304 300 297 298 297
214 220 234 242 245 247 251 251 255 256 256 258 257 251 243 244 261 252 259 256 258 264 271 275 280 280 283 286 290 291 294 293 294 296 300 301 304 305 304 300 298 298 298
223 238 235 247 259 255 255 257 255 253 252 252 257 255 266 274 267 265 262 260 258 261 266 269 275 277 280 283 288 290 292 290 292 296 301 302 300 308 307 306 305 305 305
203 223 235 247 253 263 265 261 262 260 261 261 263 266 260 254 255 260 262 262 261 263 263 262 267 273 278 277 279 281 283 282 288 297 295 297 300 309 311 309 311 311 313
206 231 263 277 279 281 278 276 274 263 263 262 259 257 260 262 261 264 264 264 261 264 265 265 262 266 277 279 284 285 281 280 285 286 287 287 301 309 311 311 313 317 316
231 262 266 278 285 283 281 276 275 273 270 266 264 259 260 258 261 262 263 261 262 265 268 263 267 272 277 278 279 283 285 288 288 285 285 286 298 307 313 311 321 322 332
271 268 273 272 265 264 268 276 278 275 271 268 264 261 261 261 263 264 265 264 266 268 269 270 271 272 279 285 285 287 292 297 299 299 290 301 310 317 326 326 333 335 343